Charlottesville, VA

4:10 PM EDT on June 26, 2017 (GMT -0400)
Charlottesville-Albemarle

Weather History for KCHO - April, 2012

Change the Weather History Date:

Thursday, April 26, 2012

  Actual Average Record
Temperature  
Mean Temperature 65 °F 58 °F  
Max Temperature 73 °F 70 °F 97 °F (1915)
Min Temperature 57 °F 46 °F 31 °F (2001)
Degree Days  
Heating Degree Days 0 8  
Month to date heating degree days 227 280  
Since 1 July heating degree days 3272 4284  
Cooling Degree Days 0 1  
Month to date cooling degree days 22 18  
Year to date cooling degree days 40 20  
Growing Degree Days 15 (Base 50)    
Moisture  
Dew Point 55 °F    
Average Humidity 69    
Maximum Humidity 86    
Minimum Humidity 51    
Precipitation  
Precipitation 0.00 in 0.11 in 0.36 in (2004)
Month to date precipitation 1.22 2.96  
Year to date precipitation 9.87 12.09  
Sea Level Pressure  
Sea Level Pressure 29.72 in    
Wind  
Wind Speed 7 mph (SW)    
Max Wind Speed 15 mph    
Max Gust Speed 20 mph    
Visibility 8 miles    
Events Rain    
T = Trace of Precipitation, MM = Missing Value Source: NWS Daily Summary

Daily Weather History Graph

Daily Weather History Graph

Search for Another Location

Airport or City:

Trip Planner

Search our weather history database for the weather conditions in past years. The results will help you decide how hot, cold, wet, or windy it might be!

Date:

Astronomy

Apr. 26, 2012 Rise Set
Actual Time 6:22 AM EDT 8:00 PM EDT
Civil Twilight 5:54 AM EDT 8:28 PM EDT
Nautical Twilight 5:21 AM EDT 9:02 PM EDT
Astronomical Twilight 4:45 AM EDT 9:38 PM EDT
Moon 10:02 AM EDT 12:02 AM EDT
Length of Visible Light 14h 33m
Length of Day
13h 37m
Waxing Crescent, 24% of the Moon is Illuminated
Apr 26
Waxing Crescent
Apr 29
First Quarter
May 5
Full
May 12
Last Quarter
May 20
New

Hourly Weather History & Observations

Time (EDT) Temp. Dew Point Humidity Pressure Visibility Wind Dir Wind Speed Gust Speed Precip Events Conditions
12:53 AM 60.1 °F 45.0 °F 57% 29.85 in 10.0 mi SW 3.5 mph - N/A   Overcast
1:53 AM 61.0 °F 46.0 °F 58% 29.82 in 10.0 mi SSW 6.9 mph - N/A   Overcast
2:53 AM 60.1 °F 46.0 °F 60% 29.78 in 10.0 mi SSW 8.1 mph - N/A   Overcast
3:53 AM 59.0 °F 50.0 °F 72% 29.78 in 10.0 mi SW 5.8 mph - N/A   Overcast
4:48 AM 57.2 °F 51.8 °F 82% 29.79 in 10.0 mi SW 10.4 mph - 0.00 in Rain Light Rain
4:53 AM 57.9 °F 52.0 °F 81% 29.78 in 9.0 mi SW 6.9 mph - 0.00 in Rain Light Rain
5:40 AM 57.2 °F 53.6 °F 88% 29.77 in 5.0 mi SSW 6.9 mph - 0.00 in Rain Light Rain
5:53 AM 57.0 °F 53.1 °F 87% 29.76 in 4.0 mi SW 5.8 mph - N/A Rain Rain
6:18 AM 57.2 °F 53.6 °F 88% 29.79 in 2.5 mi WSW 5.8 mph - N/A Rain Rain
6:53 AM 57.9 °F 53.1 °F 84% 29.78 in 2.5 mi WSW 5.8 mph - N/A Rain Heavy Rain
7:53 AM 57.9 °F 54.0 °F 87% 29.74 in 2.5 mi South 4.6 mph - N/A Rain Light Rain
8:53 AM 60.1 °F 55.0 °F 83% 29.75 in 2.5 mi SSW 6.9 mph - N/A   Haze
9:53 AM 62.1 °F 55.9 °F 80% 29.74 in 2.5 mi SSW 4.6 mph - N/A   Overcast
10:00 AM 62.6 °F 55.4 °F 77% 29.75 in 10.0 mi Calm Calm - N/A   Overcast
10:13 AM 62.6 °F 55.4 °F 77% 29.75 in 10.0 mi Calm Calm - N/A   Overcast
10:53 AM 64.9 °F 57.0 °F 75% 29.73 in 7.0 mi Calm Calm - N/A   Overcast
11:03 AM 64.4 °F 57.2 °F 77% 29.74 in 7.0 mi SW 4.6 mph - N/A   Overcast
11:51 AM 66.2 °F 57.2 °F 73% 29.71 in 7.0 mi SW 6.9 mph - N/A   Mostly Cloudy
11:53 AM 66.0 °F 57.0 °F 73% 29.70 in 7.0 mi SW 8.1 mph - N/A   Mostly Cloudy
12:44 PM 66.2 °F 57.2 °F 73% 29.69 in 10.0 mi SW 9.2 mph - N/A   Clear
12:53 PM 66.9 °F 57.9 °F 73% 29.67 in 10.0 mi SSW 6.9 mph - N/A   Partly Cloudy
1:53 PM 69.1 °F 59.0 °F 70% 29.66 in 10.0 mi SW 16.1 mph 19.6 mph 0.00 in Rain Light Rain
2:53 PM 70.0 °F 57.9 °F 65% 29.63 in 10.0 mi SSW 10.4 mph - 0.00 in   Partly Cloudy
3:20 PM 68.0 °F 57.2 °F 68% 29.65 in 10.0 mi SW 6.9 mph - N/A   Mostly Cloudy
3:53 PM 69.1 °F 57.9 °F 68% 29.64 in 10.0 mi WSW 9.2 mph - N/A   Mostly Cloudy
4:00 PM 69.8 °F 57.2 °F 64% 29.65 in 10.0 mi SW 9.2 mph - N/A   Clear
4:53 PM 72.0 °F 57.0 °F 59% 29.63 in 10.0 mi WSW 9.2 mph - N/A   Clear
5:53 PM 72.0 °F 55.9 °F 57% 29.62 in 10.0 mi Variable 5.8 mph - N/A   Clear
6:53 PM 73.0 °F 57.0 °F 57% 29.63 in 10.0 mi WSW 5.8 mph - N/A   Clear
7:53 PM 72.0 °F 57.0 °F 59% 29.64 in 10.0 mi SW 11.5 mph - N/A   Clear
8:53 PM 69.1 °F 57.0 °F 65% 29.67 in 10.0 mi SW 8.1 mph - N/A   Clear
9:53 PM 66.9 °F 57.0 °F 70% 29.68 in 10.0 mi South 6.9 mph - N/A   Clear
10:53 PM 70.0 °F 55.0 °F 59% 29.70 in 10.0 mi SW 5.8 mph - N/A   Clear
11:53 PM 69.1 °F 50.0 °F 51% 29.73 in 10.0 mi NW 4.6 mph - N/A   Clear